Time,TemperatureF,DewpointF,PressureIn,WindDirection,WindDirectionDegrees,WindSpeedMPH,WindSpeedGustMPH,Humidity,HourlyPrecipIn,Conditions,Clouds,dailyrainin,SolarRadiationWatts/m^2,SoftwareType,DateUTC
2013-04-22 00:00:00,41.9,16.3,30.09,SW,225,6.0,25.0,35,0.00,,,0.00,0,WeatherCatV1.15B25,2013-04-22 06:00:00,
2013-04-22 00:05:00,41.6,21.8,30.09,West,270,10.0,31.0,45,0.00,,,0.00,0,WeatherCatV1.15B25,2013-04-22 06:05:00,
2013-04-22 00:10:00,41.6,21.8,30.09,West,270,10.0,31.0,45,0.00,,,0.00,0,WeatherCatV1.15B25,2013-04-22 06:10:00,
2013-04-22 00:15:00,41.6,21.8,30.09,West,270,10.0,31.0,45,0.00,,,0.00,0,WeatherCatV1.15B25,2013-04-22 06:15:00,
2013-04-22 00:20:00,40.8,22.6,30.09,WSW,248,9.0,25.0,48,0.00,,,0.00,0,WeatherCatV1.15B25,2013-04-22 06:20:00,
2013-04-22 00:25:00,40.8,22.6,30.09,WSW,248,9.0,25.0,48,0.00,,,0.00,0,WeatherCatV1.15B25,2013-04-22 06:25:00,
2013-04-22 00:30:00,40.8,22.6,30.09,WSW,248,9.0,25.0,48,0.00,,,0.00,0,WeatherCatV1.15B25,2013-04-22 06:30:00,
2013-04-22 00:35:00,41.1,21.9,30.08,SW,225,7.0,20.0,46,0.00,,,0.00,0,WeatherCatV1.15B25,2013-04-22 06:35:00,
2013-04-22 00:40:00,41.1,21.9,30.08,SW,225,7.0,20.0,46,0.00,,,0.00,0,WeatherCatV1.15B25,2013-04-22 06:40:00,
2013-04-22 00:45:00,41.1,21.9,30.08,SW,225,7.0,20.0,46,0.00,,,0.00,0,WeatherCatV1.15B25,2013-04-22 06:45:00,
2013-04-22 00:50:00,40.9,20.7,30.06,SSW,202,2.0,7.0,44,0.00,,,0.00,0,WeatherCatV1.15B25,2013-04-22 06:50:00,
2013-04-22 00:55:00,40.9,20.7,30.06,SSW,202,2.0,7.0,44,0.00,,,0.00,0,WeatherCatV1.15B25,2013-04-22 06:55:00,
2013-04-22 01:00:00,40.9,20.7,30.06,SSW,202,2.0,7.0,44,0.00,,,0.00,0,WeatherCatV1.15B25,2013-04-22 07:00:00,
2013-04-22 01:05:00,41.2,20.4,30.06,SSW,202,3.0,16.0,43,0.00,,,0.00,0,WeatherCatV1.15B25,2013-04-22 07:05:00,
2013-04-22 01:10:00,41.2,20.4,30.06,SSW,202,3.0,16.0,43,0.00,,,0.00,0,WeatherCatV1.15B25,2013-04-22 07:10:00,
2013-04-22 01:15:00,41.2,20.4,30.06,SSW,202,3.0,16.0,43,0.00,,,0.00,0,WeatherCatV1.15B25,2013-04-22 07:15:00,
2013-04-22 01:20:00,41.2,22.0,30.08,SSW,202,9.0,21.0,46,0.00,,,0.00,0,WeatherCatV1.15B25,2013-04-22 07:20:00,
2013-04-22 01:25:00,41.2,22.0,30.08,SSW,202,9.0,21.0,46,0.00,,,0.00,0,WeatherCatV1.15B25,2013-04-22 07:25:00,
2013-04-22 01:30:00,39.8,25.4,30.08,SW,225,11.0,19.0,56,0.00,,,0.00,0,WeatherCatV1.15B25,2013-04-22 07:30:00,
2013-04-22 01:35:00,39.8,25.4,30.08,SW,225,11.0,19.0,56,0.00,,,0.00,0,WeatherCatV1.15B25,2013-04-22 07:35:00,
2013-04-22 01:40:00,39.8,25.4,30.08,SW,225,11.0,19.0,56,0.00,,,0.00,0,WeatherCatV1.15B25,2013-04-22 07:40:00,
2013-04-22 01:45:00,37.2,27.3,30.07,WSW,248,7.0,20.0,67,0.00,,,0.00,0,WeatherCatV1.15B25,2013-04-22 07:45:00,
2013-04-22 01:50:00,37.2,27.3,30.07,WSW,248,7.0,20.0,67,0.00,,,0.00,0,WeatherCatV1.15B25,2013-04-22 07:50:00,
2013-04-22 01:55:00,37.2,27.3,30.07,WSW,248,7.0,20.0,67,0.00,,,0.00,0,WeatherCatV1.15B25,2013-04-22 07:55:00,
2013-04-22 02:00:00,36.9,27.0,30.07,NW,315,3.0,10.0,67,0.00,,,0.00,0,WeatherCatV1.15B25,2013-04-22 08:00:00,
2013-04-22 02:05:00,36.9,27.0,30.07,NW,315,3.0,10.0,67,0.00,,,0.00,0,WeatherCatV1.15B25,2013-04-22 08:05:00,
2013-04-22 02:10:00,36.9,27.0,30.07,NW,315,3.0,10.0,67,0.00,,,0.00,0,WeatherCatV1.15B25,2013-04-22 08:10:00,
2013-04-22 02:15:00,36.9,27.0,30.07,NW,315,3.0,10.0,67,0.00,,,0.00,0,WeatherCatV1.15B25,2013-04-22 08:15:00,
2013-04-22 02:20:00,36.8,28.0,30.06,North,0,4.0,8.0,70,0.00,,,0.00,0,WeatherCatV1.15B25,2013-04-22 08:20:00,
2013-04-22 02:25:00,36.8,28.0,30.06,North,0,4.0,8.0,70,0.00,,,0.00,0,WeatherCatV1.15B25,2013-04-22 08:25:00,
2013-04-22 02:30:00,36.8,28.0,30.06,North,0,4.0,8.0,70,0.00,,,0.00,0,WeatherCatV1.15B25,2013-04-22 08:30:00,
2013-04-22 02:35:00,36.8,28.3,30.06,NNW,338,2.0,11.0,71,0.00,,,0.00,0,WeatherCatV1.15B25,2013-04-22 08:35:00,
2013-04-22 02:40:00,36.8,28.3,30.06,NNW,338,2.0,11.0,71,0.00,,,0.00,0,WeatherCatV1.15B25,2013-04-22 08:40:00,
2013-04-22 02:45:00,36.8,28.3,30.06,NNW,338,2.0,11.0,71,0.00,,,0.00,0,WeatherCatV1.15B25,2013-04-22 08:45:00,
2013-04-22 02:50:00,36.8,28.3,30.06,NW,315,5.0,13.0,71,0.00,,,0.00,0,WeatherCatV1.15B25,2013-04-22 08:50:00,
2013-04-22 02:55:00,36.8,28.3,30.06,NW,315,5.0,13.0,71,0.00,,,0.00,0,WeatherCatV1.15B25,2013-04-22 08:55:00,
2013-04-22 03:00:00,36.8,28.3,30.06,NW,315,5.0,13.0,71,0.00,,,0.00,0,WeatherCatV1.15B25,2013-04-22 09:00:00,
2013-04-22 03:05:00,36.8,28.3,30.05,North,0,3.0,11.0,71,0.00,,,0.00,0,WeatherCatV1.15B25,2013-04-22 09:05:00,
2013-04-22 03:10:00,36.8,28.3,30.05,North,0,3.0,11.0,71,0.00,,,0.00,0,WeatherCatV1.15B25,2013-04-22 09:10:00,
2013-04-22 03:15:00,36.8,28.3,30.05,North,0,3.0,11.0,71,0.00,,,0.00,0,WeatherCatV1.15B25,2013-04-22 09:15:00,
2013-04-22 03:20:00,36.6,28.4,30.04,North,0,2.0,9.0,72,0.00,,,0.00,0,WeatherCatV1.15B25,2013-04-22 09:20:00,
2013-04-22 03:25:00,36.6,28.4,30.04,North,0,2.0,9.0,72,0.00,,,0.00,0,WeatherCatV1.15B25,2013-04-22 09:25:00,
2013-04-22 03:30:00,36.6,28.4,30.04,North,0,2.0,9.0,72,0.00,,,0.00,0,WeatherCatV1.15B25,2013-04-22 09:30:00,
2013-04-22 03:35:00,36.6,27.8,30.03,NW,315,3.0,12.0,70,0.00,,,0.00,0,WeatherCatV1.15B25,2013-04-22 09:35:00,
2013-04-22 03:40:00,36.6,27.8,30.03,NW,315,3.0,12.0,70,0.00,,,0.00,0,WeatherCatV1.15B25,2013-04-22 09:40:00,
2013-04-22 03:45:00,36.6,27.8,30.03,NW,315,3.0,12.0,70,0.00,,,0.00,0,WeatherCatV1.15B25,2013-04-22 09:45:00,
2013-04-22 03:50:00,37.3,26.6,30.02,SW,225,9.0,19.0,65,0.00,,,0.00,0,WeatherCatV1.15B25,2013-04-22 09:50:00,
2013-04-22 03:55:00,37.3,26.6,30.02,SW,225,9.0,19.0,65,0.00,,,0.00,0,WeatherCatV1.15B25,2013-04-22 09:55:00,
2013-04-22 04:00:00,37.3,26.6,30.02,SW,225,9.0,19.0,65,0.00,,,0.00,0,WeatherCatV1.15B25,2013-04-22 10:00:00,
2013-04-22 04:05:00,37.2,27.6,30.03,NNW,338,6.0,16.0,68,0.00,,,0.00,0,WeatherCatV1.15B25,2013-04-22 10:05:00,
2013-04-22 04:10:00,37.2,27.6,30.03,NNW,338,6.0,16.0,68,0.00,,,0.00,0,WeatherCatV1.15B25,2013-04-22 10:10:00,
2013-04-22 04:15:00,37.2,27.6,30.03,NNW,338,6.0,16.0,68,0.00,,,0.00,0,WeatherCatV1.15B25,2013-04-22 10:15:00,
2013-04-22 04:20:00,36.6,28.4,30.03,NNW,338,4.0,11.0,72,0.00,,,0.00,0,WeatherCatV1.15B25,2013-04-22 10:20:00,
2013-04-22 04:25:00,36.6,28.4,30.03,NNW,338,4.0,11.0,72,0.00,,,0.00,0,WeatherCatV1.15B25,2013-04-22 10:25:00,
2013-04-22 04:30:00,36.6,28.4,30.03,NNW,338,4.0,11.0,72,0.00,,,0.00,0,WeatherCatV1.15B25,2013-04-22 10:30:00,
2013-04-22 04:35:00,36.3,28.1,30.03,West,270,4.0,13.0,72,0.00,,,0.00,0,WeatherCatV1.15B25,2013-04-22 10:35:00,
2013-04-22 04:40:00,36.3,28.1,30.03,West,270,4.0,13.0,72,0.00,,,0.00,0,WeatherCatV1.15B25,2013-04-22 10:40:00,
2013-04-22 04:45:00,36.3,28.1,30.03,West,270,4.0,13.0,72,0.00,,,0.00,0,WeatherCatV1.15B25,2013-04-22 10:45:00,
2013-04-22 04:50:00,36.2,28.4,30.02,WNW,292,3.0,12.0,73,0.00,,,0.00,0,WeatherCatV1.15B25,2013-04-22 10:50:00,
2013-04-22 04:55:00,36.2,28.4,30.02,WNW,292,3.0,12.0,73,0.00,,,0.00,0,WeatherCatV1.15B25,2013-04-22 10:55:00,
2013-04-22 05:07:00,36.2,28.4,30.02,WNW,292,3.0,12.0,73,0.00,,,0.00,0,WeatherCatV1.15B25,2013-04-22 11:07:00,
2013-04-22 05:12:00,36.3,28.5,30.02,SW,232,5.0,7.0,73,0.00,,,0.00,0,WeatherCatV1.15B25,2013-04-22 11:12:00,
2013-04-22 05:17:00,36.3,28.2,30.02,West,272,2.0,7.0,72,0.00,,,0.00,0,WeatherCatV1.15B25,2013-04-22 11:17:00,
2013-04-22 05:22:00,36.3,28.2,30.02,WSW,256,2.0,4.0,72,0.00,,,0.00,0,WeatherCatV1.15B25,2013-04-22 11:22:00,
2013-04-22 05:27:00,36.3,28.2,30.02,WSW,256,5.0,6.0,72,0.00,,,0.00,0,WeatherCatV1.15B25,2013-04-22 11:27:00,
2013-04-22 05:32:00,36.3,27.8,30.02,WSW,256,5.0,6.0,71,0.00,,,0.00,0,WeatherCatV1.15B25,2013-04-22 11:32:00,
2013-04-22 05:37:00,36.5,28.0,30.02,West,260,2.0,7.0,71,0.00,,,0.00,0,WeatherCatV1.15B25,2013-04-22 11:37:00,
2013-04-22 05:42:00,36.5,27.7,30.02,North,352,5.0,11.0,70,0.00,,,0.00,0,WeatherCatV1.15B25,2013-04-22 11:42:00,
2013-04-22 05:47:00,36.6,27.1,30.02,WNW,299,4.0,11.0,68,0.00,,,0.00,0,WeatherCatV1.15B25,2013-04-22 11:47:00,
2013-04-22 05:52:00,36.9,27.3,30.02,NW,315,3.0,14.0,68,0.00,,,0.00,0,WeatherCatV1.15B25,2013-04-22 11:52:00,
2013-04-22 05:57:00,36.9,27.0,30.02,WSW,256,4.0,9.0,67,0.00,,,0.00,0,WeatherCatV1.15B25,2013-04-22 11:57:00,
2013-04-22 06:02:00,37.0,26.7,30.02,WNW,296,5.0,16.0,66,0.00,,,0.00,0,WeatherCatV1.15B25,2013-04-22 12:02:00,
2013-04-22 06:07:00,37.2,26.9,30.02,NW,306,10.0,10.0,66,0.00,,,0.00,0,WeatherCatV1.15B25,2013-04-22 12:07:00,
2013-04-22 06:12:00,37.2,26.5,30.02,SW,220,11.0,14.0,65,0.00,,,0.00,0,WeatherCatV1.15B25,2013-04-22 12:12:00,
2013-04-22 06:17:00,37.3,25.9,30.01,West,270,5.0,12.0,63,0.00,,,0.00,5,WeatherCatV1.15B25,2013-04-22 12:17:00,
2013-04-22 06:22:00,37.6,25.8,30.01,WNW,299,2.0,21.0,62,0.00,,,0.00,11,WeatherCatV1.15B25,2013-04-22 12:22:00,
2013-04-22 06:27:00,37.8,26.4,30.01,NW,304,1.0,7.0,63,0.00,,,0.00,25,WeatherCatV1.15B25,2013-04-22 12:27:00,
2013-04-22 06:32:00,37.9,26.4,30.01,WNW,302,5.0,10.0,63,0.00,,,0.00,33,WeatherCatV1.15B25,2013-04-22 12:32:00,
2013-04-22 06:37:00,38.0,26.5,30.01,SW,236,2.0,6.0,63,0.00,,,0.00,33,WeatherCatV1.15B25,2013-04-22 12:37:00,
2013-04-22 06:42:00,38.2,26.0,30.01,West,265,4.0,12.0,61,0.00,,,0.00,76,WeatherCatV1.15B25,2013-04-22 12:42:00,
2013-04-22 06:47:00,38.5,26.2,30.01,North,0,9.0,19.0,61,0.00,,,0.00,74,WeatherCatV1.15B25,2013-04-22 12:47:00,
2013-04-22 06:52:00,38.6,26.3,30.01,SW,217,16.0,16.0,61,0.00,,,0.00,63,WeatherCatV1.15B25,2013-04-22 12:52:00,
2013-04-22 06:59:00,38.2,27.1,30.02,WSW,244,7.0,14.0,64,0.00,,,0.00,63,WeatherCatV1.15B25,2013-04-22 12:59:00,
2013-04-22 07:04:00,38.2,27.1,30.02,WNW,292,8.0,8.0,64,0.00,,,0.00,109,WeatherCatV1.15B25,2013-04-22 13:04:00,
2013-04-22 07:09:00,38.3,26.8,30.02,WSW,256,5.0,11.0,63,0.00,,,0.00,69,WeatherCatV1.15B25,2013-04-22 13:09:00,
2013-04-22 07:14:00,38.5,26.2,30.01,West,274,7.0,13.0,61,0.00,,,0.00,83,WeatherCatV1.15B25,2013-04-22 13:14:00,
2013-04-22 07:19:00,38.8,26.5,30.01,West,270,11.0,17.0,61,0.00,,,0.00,160,WeatherCatV1.15B25,2013-04-22 13:19:00,
2013-04-22 07:24:00,39.2,26.5,30.01,West,265,12.0,16.0,60,0.00,,,0.00,243,WeatherCatV1.15B25,2013-04-22 13:24:00,
2013-04-22 07:29:00,39.5,27.6,30.01,NW,316,4.0,12.0,62,0.00,,,0.00,185,WeatherCatV1.15B25,2013-04-22 13:29:00,
2013-04-22 07:34:00,39.6,27.3,30.01,West,270,5.0,14.0,61,0.00,,,0.00,267,WeatherCatV1.15B25,2013-04-22 13:34:00,
2013-04-22 07:39:00,39.8,27.9,30.01,WSW,248,10.0,19.0,62,0.00,,,0.00,150,WeatherCatV1.15B25,2013-04-22 13:39:00,
2013-04-22 07:44:00,39.9,27.2,30.01,WSW,246,16.0,18.0,60,0.00,,,0.00,326,WeatherCatV1.15B25,2013-04-22 13:44:00,
2013-04-22 07:49:00,40.2,27.0,30.01,WSW,247,5.0,19.0,59,0.00,,,0.00,262,WeatherCatV1.15B25,2013-04-22 13:49:00,
2013-04-22 07:54:00,40.6,27.0,30.01,SW,233,10.0,15.0,58,0.00,,,0.00,357,WeatherCatV1.15B25,2013-04-22 13:54:00,
2013-04-22 07:59:00,40.6,27.4,30.02,WNW,291,12.0,14.0,59,0.00,,,0.00,213,WeatherCatV1.15B25,2013-04-22 13:59:00,
2013-04-22 08:04:00,40.5,27.7,30.02,NW,313,10.0,18.0,60,0.00,,,0.00,234,WeatherCatV1.15B25,2013-04-22 14:04:00,
2013-04-22 08:09:00,40.6,27.8,30.02,WNW,291,6.0,12.0,60,0.00,,,0.00,195,WeatherCatV1.15B25,2013-04-22 14:09:00,
2013-04-22 08:14:00,40.6,28.2,30.01,WSW,258,12.0,14.0,61,0.00,,,0.00,241,WeatherCatV1.15B25,2013-04-22 14:14:00,
2013-04-22 08:19:00,40.8,27.6,30.01,WNW,291,10.0,16.0,59,0.00,,,0.00,294,WeatherCatV1.15B25,2013-04-22 14:19:00,
2013-04-22 08:24:00,41.1,27.5,30.01,West,268,13.0,17.0,58,0.00,,,0.00,202,WeatherCatV1.15B25,2013-04-22 14:24:00,
2013-04-22 08:29:00,41.1,27.9,30.02,WNW,296,17.0,17.0,59,0.00,,,0.00,297,WeatherCatV1.15B25,2013-04-22 14:29:00,
2013-04-22 08:34:00,40.8,28.0,30.02,West,271,16.0,17.0,60,0.00,,,0.00,246,WeatherCatV1.15B25,2013-04-22 14:34:00,
2013-04-22 08:39:00,40.6,28.2,30.02,WSW,254,11.0,13.0,61,0.00,,,0.00,252,WeatherCatV1.15B25,2013-04-22 14:39:00,
2013-04-22 08:44:00,40.6,29.4,30.02,West,271,13.0,15.0,64,0.00,,,0.00,366,WeatherCatV1.15B25,2013-04-22 14:44:00,
2013-04-22 08:49:00,41.1,28.7,30.02,West,267,12.0,12.0,61,0.00,,,0.00,338,WeatherCatV1.15B25,2013-04-22 14:49:00,
2013-04-22 08:54:00,41.5,27.8,30.02,NW,325,10.0,24.0,58,0.00,,,0.00,394,WeatherCatV1.15B25,2013-04-22 14:54:00,
2013-04-22 08:59:00,42.5,27.5,30.01,WNW,291,13.0,17.0,55,0.00,,,0.00,591,WeatherCatV1.15B25,2013-04-22 14:59:00,
2013-04-22 09:04:00,43.1,28.0,30.01,NW,306,12.0,21.0,55,0.00,,,0.00,674,WeatherCatV1.15B25,2013-04-22 15:04:00,
2013-04-22 09:09:00,42.8,28.2,30.01,WSW,237,10.0,22.0,56,0.00,,,0.00,574,WeatherCatV1.15B25,2013-04-22 15:09:00,
2013-04-22 09:14:00,42.3,27.3,30.02,West,270,13.0,25.0,55,0.00,,,0.00,250,WeatherCatV1.15B25,2013-04-22 15:14:00,
2013-04-22 09:19:00,41.6,29.2,30.02,NW,326,11.0,16.0,61,0.00,,,0.00,253,WeatherCatV1.15B25,2013-04-22 15:19:00,
2013-04-22 09:24:00,41.5,31.4,30.02,North,359,10.0,11.0,67,0.00,,,0.00,720,WeatherCatV1.15B25,2013-04-22 15:24:00,
2013-04-22 09:29:00,42.2,31.3,30.01,NW,316,6.0,13.0,65,0.00,,,0.00,676,WeatherCatV1.15B25,2013-04-22 15:29:00,
2013-04-22 09:34:00,42.8,28.2,30.01,North,353,10.0,20.0,56,0.00,,,0.00,709,WeatherCatV1.15B25,2013-04-22 15:34:00,
2013-04-22 09:39:00,43.9,27.9,30.01,West,274,16.0,20.0,53,0.00,,,0.00,732,WeatherCatV1.15B25,2013-04-22 15:39:00,
2013-04-22 09:44:00,44.2,28.2,30.02,West,267,2.0,13.0,53,0.00,,,0.00,626,WeatherCatV1.15B25,2013-04-22 15:44:00,
2013-04-22 09:49:00,44.6,28.5,30.02,NW,304,10.0,14.0,53,0.00,,,0.00,626,WeatherCatV1.15B25,2013-04-22 15:49:00,
2013-04-22 09:54:00,44.8,27.3,30.02,WSW,253,13.0,21.0,50,0.00,,,0.00,507,WeatherCatV1.15B25,2013-04-22 15:54:00,
2013-04-22 09:59:00,44.3,27.8,30.02,WNW,288,13.0,21.0,52,0.00,,,0.00,707,WeatherCatV1.15B25,2013-04-22 15:59:00,
2013-04-22 10:04:00,44.1,27.6,30.02,WSW,250,13.0,24.0,52,0.00,,,0.00,563,WeatherCatV1.15B25,2013-04-22 16:04:00,
2013-04-22 10:09:00,44.1,27.6,30.02,WSW,257,7.0,19.0,52,0.00,,,0.00,709,WeatherCatV1.15B25,2013-04-22 16:09:00,
2013-04-22 10:14:00,44.5,28.4,30.02,NW,305,10.0,18.0,53,0.00,,,0.00,572,WeatherCatV1.15B25,2013-04-22 16:14:00,
2013-04-22 10:19:00,44.9,27.9,30.02,NW,316,9.0,17.0,51,0.00,,,0.00,769,WeatherCatV1.15B25,2013-04-22 16:19:00,
2013-04-22 10:24:00,45.4,27.9,30.02,WSW,240,13.0,22.0,50,0.00,,,0.00,563,WeatherCatV1.15B25,2013-04-22 16:24:00,
2013-04-22 10:29:00,44.8,27.8,30.02,WSW,239,16.0,21.0,51,0.00,,,0.00,563,WeatherCatV1.15B25,2013-04-22 16:29:00,
2013-04-22 10:34:00,43.6,27.6,30.02,WSW,257,12.0,16.0,53,0.00,,,0.00,457,WeatherCatV1.15B25,2013-04-22 16:34:00,
2013-04-22 10:39:00,43.5,28.0,30.02,WNW,295,17.0,18.0,54,0.00,,,0.00,457,WeatherCatV1.15B25,2013-04-22 16:39:00,
2013-04-22 10:44:00,43.2,28.1,30.02,NW,311,12.0,17.0,55,0.00,,,0.00,501,WeatherCatV1.15B25,2013-04-22 16:44:00,
2013-04-22 10:49:00,43.6,26.2,30.02,WNW,294,7.0,26.0,50,0.00,,,0.00,501,WeatherCatV1.15B25,2013-04-22 16:49:00,
2013-04-22 10:54:00,44.6,26.1,30.02,SW,232,11.0,13.0,48,0.00,,,0.00,721,WeatherCatV1.15B25,2013-04-22 16:54:00,
2013-04-22 10:59:00,45.8,26.2,30.01,WNW,289,12.0,13.0,46,0.00,,,0.00,936,WeatherCatV1.15B25,2013-04-22 16:59:00,
2013-04-22 11:04:00,46.1,24.9,30.01,West,268,13.0,26.0,43,0.00,,,0.00,948,WeatherCatV1.15B25,2013-04-22 17:04:00,
2013-04-22 11:09:00,46.5,25.8,30.01,West,271,17.0,24.0,44,0.00,,,0.00,980,WeatherCatV1.15B25,2013-04-22 17:09:00,
2013-04-22 11:14:00,47.0,25.7,30.01,NW,304,14.0,20.0,43,0.00,,,0.00,948,WeatherCatV1.15B25,2013-04-22 17:14:00,
2013-04-22 11:19:00,47.6,25.1,30.01,WSW,254,9.0,16.0,41,0.00,,,0.00,968,WeatherCatV1.15B25,2013-04-22 17:19:00,
2013-04-22 11:24:00,48.0,24.8,30.01,WNW,285,17.0,25.0,40,0.00,,,0.00,989,WeatherCatV1.15B25,2013-04-22 17:24:00,
2013-04-22 11:29:00,47.9,24.8,30.01,SW,234,15.0,25.0,40,0.00,,,0.00,1042,WeatherCatV1.15B25,2013-04-22 17:29:00,
2013-04-22 11:34:00,47.9,22.2,30.01,SW,217,19.0,22.0,36,0.00,,,0.00,1029,WeatherCatV1.15B25,2013-04-22 17:34:00,
2013-04-22 11:39:00,48.3,21.9,30.01,NW,304,14.0,27.0,35,0.00,,,0.00,1012,WeatherCatV1.15B25,2013-04-22 17:39:00,
2013-04-22 11:44:00,48.9,23.1,30.00,West,274,13.0,22.0,36,0.00,,,0.00,1070,WeatherCatV1.15B25,2013-04-22 17:44:00,
2013-04-22 11:49:00,49.2,23.4,30.00,West,263,8.0,14.0,36,0.00,,,0.00,1052,WeatherCatV1.15B25,2013-04-22 17:49:00,
2013-04-22 11:54:00,49.6,21.7,30.00,WSW,253,8.0,25.0,33,0.00,,,0.00,987,WeatherCatV1.15B25,2013-04-22 17:54:00,
2013-04-22 11:59:00,49.6,20.2,30.00,WSW,251,13.0,28.0,31,0.00,,,0.00,1123,WeatherCatV1.15B25,2013-04-22 17:59:00,
2013-04-22 12:04:00,49.9,21.2,30.00,SW,227,11.0,17.0,32,0.00,,,0.00,940,WeatherCatV1.15B25,2013-04-22 18:04:00,
2013-04-22 12:09:00,49.9,21.2,30.00,West,280,21.0,27.0,32,0.00,,,0.00,1091,WeatherCatV1.15B25,2013-04-22 18:09:00,
2013-04-22 12:14:00,49.6,22.4,29.99,WSW,254,13.0,20.0,34,0.00,,,0.00,1179,WeatherCatV1.15B25,2013-04-22 18:14:00,
2013-04-22 12:19:00,49.9,23.4,29.99,NW,319,10.0,25.0,35,0.00,,,0.00,1170,WeatherCatV1.15B25,2013-04-22 18:19:00,
2013-04-22 12:24:00,51.0,22.2,29.99,SW,234,16.0,22.0,32,0.00,,,0.00,1156,WeatherCatV1.15B25,2013-04-22 18:24:00,
2013-04-22 12:29:00,51.6,19.6,29.99,West,271,20.0,21.0,28,0.00,,,0.00,1158,WeatherCatV1.15B25,2013-04-22 18:29:00,
2013-04-22 12:34:00,51.0,22.9,29.99,NW,311,16.0,29.0,33,0.00,,,0.00,1174,WeatherCatV1.15B25,2013-04-22 18:34:00,
2013-04-22 12:39:00,51.4,23.3,29.99,SSW,208,19.0,33.0,33,0.00,,,0.00,1174,WeatherCatV1.15B25,2013-04-22 18:39:00,
2013-04-22 12:44:00,49.6,19.5,29.98,NW,311,16.0,28.0,30,0.00,,,0.00,368,WeatherCatV1.15B25,2013-04-22 18:44:00,
2013-04-22 12:49:00,50.1,23.5,29.98,NNW,336,12.0,16.0,35,0.00,,,0.00,1107,WeatherCatV1.15B25,2013-04-22 18:49:00,
2013-04-22 12:54:00,51.0,22.9,29.98,NNW,329,12.0,17.0,33,0.00,,,0.00,1237,WeatherCatV1.15B25,2013-04-22 18:54:00,
2013-04-22 12:59:00,52.0,22.3,29.98,North,349,12.0,27.0,31,0.00,,,0.00,1239,WeatherCatV1.15B25,2013-04-22 18:59:00,
2013-04-22 13:04:00,51.4,17.7,29.98,SSW,199,21.0,24.0,26,0.00,,,0.00,607,WeatherCatV1.15B25,2013-04-22 19:04:00,
2013-04-22 13:09:00,51.1,17.4,29.98,WNW,295,17.0,19.0,26,0.00,,,0.00,660,WeatherCatV1.15B25,2013-04-22 19:09:00,
2013-04-22 13:14:00,51.0,17.3,29.98,WSW,240,19.0,29.0,26,0.00,,,0.00,1130,WeatherCatV1.15B25,2013-04-22 19:14:00,
2013-04-22 13:19:00,51.4,17.7,29.98,West,270,16.0,32.0,26,0.00,,,0.00,945,WeatherCatV1.15B25,2013-04-22 19:19:00,
2013-04-22 13:24:00,51.9,17.2,29.98,SSW,209,8.0,20.0,25,0.00,,,0.00,1240,WeatherCatV1.15B25,2013-04-22 19:24:00,
2013-04-22 13:29:00,52.3,17.5,29.97,South,191,10.0,22.0,25,0.00,,,0.00,1240,WeatherCatV1.15B25,2013-04-22 19:29:00,
2013-04-22 13:34:00,51.7,16.1,29.97,WNW,285,31.0,33.0,24,0.00,,,0.00,684,WeatherCatV1.15B25,2013-04-22 19:34:00,
2013-04-22 13:39:00,52.5,16.8,29.97,WNW,299,6.0,13.0,24,0.00,,,0.00,1086,WeatherCatV1.15B25,2013-04-22 19:39:00,
2013-04-22 13:44:00,53.1,16.3,29.97,North,353,6.0,20.0,23,0.00,,,0.00,429,WeatherCatV1.15B25,2013-04-22 19:44:00,
2013-04-22 13:49:00,51.9,15.3,29.97,WNW,299,12.0,29.0,23,0.00,,,0.00,361,WeatherCatV1.15B25,2013-04-22 19:49:00,
2013-04-22 13:54:00,51.4,13.9,29.97,SW,234,21.0,22.0,22,0.00,,,0.00,361,WeatherCatV1.15B25,2013-04-22 19:54:00,
2013-04-22 13:59:00,52.0,15.4,29.97,West,271,14.0,20.0,23,0.00,,,0.00,1075,WeatherCatV1.15B25,2013-04-22 19:59:00,
2013-04-22 14:04:00,52.8,15.0,29.97,WSW,246,16.0,27.0,22,0.00,,,0.00,938,WeatherCatV1.15B25,2013-04-22 20:04:00,
2013-04-22 14:09:00,53.2,14.3,29.97,SW,222,11.0,21.0,21,0.00,,,0.00,922,WeatherCatV1.15B25,2013-04-22 20:09:00,
2013-04-22 14:14:00,53.5,13.4,29.96,West,267,5.0,22.0,20,0.00,,,0.00,1068,WeatherCatV1.15B25,2013-04-22 20:14:00,
2013-04-22 14:19:00,54.1,16.1,29.96,WSW,244,5.0,11.0,22,0.00,,,0.00,992,WeatherCatV1.15B25,2013-04-22 20:19:00,
2013-04-22 14:24:00,54.4,15.3,29.96,West,261,24.0,31.0,21,0.00,,,0.00,987,WeatherCatV1.15B25,2013-04-22 20:24:00,
2013-04-22 14:29:00,53.5,15.6,29.96,SW,232,12.0,28.0,22,0.00,,,0.00,794,WeatherCatV1.15B25,2013-04-22 20:29:00,
2013-04-22 14:34:00,53.2,15.4,29.96,SSW,195,6.0,20.0,22,0.00,,,0.00,855,WeatherCatV1.15B25,2013-04-22 20:34:00,
2013-04-22 14:39:00,53.8,14.8,29.96,WSW,257,12.0,19.0,21,0.00,,,0.00,931,WeatherCatV1.15B25,2013-04-22 20:39:00,
2013-04-22 14:44:00,53.8,15.9,29.96,WSW,257,14.0,25.0,22,0.00,,,0.00,987,WeatherCatV1.15B25,2013-04-22 20:44:00,
2013-04-22 14:49:00,54.2,16.2,29.96,NW,319,13.0,16.0,22,0.00,,,0.00,836,WeatherCatV1.15B25,2013-04-22 20:49:00,
2013-04-22 14:54:00,54.1,16.1,29.96,SSW,212,18.0,27.0,22,0.00,,,0.00,924,WeatherCatV1.15B25,2013-04-22 20:54:00,
2013-04-22 14:59:00,54.1,16.1,29.95,NW,311,14.0,28.0,22,0.00,,,0.00,859,WeatherCatV1.15B25,2013-04-22 20:59:00,
2013-04-22 15:04:00,54.8,16.7,29.95,WNW,299,13.0,26.0,22,0.00,,,0.00,938,WeatherCatV1.15B25,2013-04-22 21:04:00,
2013-04-22 15:09:00,55.0,17.9,29.95,WNW,288,15.0,15.0,23,0.00,,,0.00,882,WeatherCatV1.15B25,2013-04-22 21:09:00,
2013-04-22 15:14:00,54.5,16.5,29.95,SSW,212,13.0,29.0,22,0.00,,,0.00,992,WeatherCatV1.15B25,2013-04-22 21:14:00,
2013-04-22 15:19:00,53.3,16.5,29.95,WSW,237,11.0,18.0,23,0.00,,,0.00,267,WeatherCatV1.15B25,2013-04-22 21:19:00,
2013-04-22 15:24:00,53.8,15.9,29.95,WSW,254,11.0,25.0,22,0.00,,,0.00,859,WeatherCatV1.15B25,2013-04-22 21:24:00,
2013-04-22 15:29:00,54.5,16.5,29.94,WSW,241,13.0,22.0,22,0.00,,,0.00,735,WeatherCatV1.15B25,2013-04-22 21:29:00,
2013-04-22 15:34:00,54.2,16.2,29.94,WNW,291,15.0,22.0,22,0.00,,,0.00,735,WeatherCatV1.15B25,2013-04-22 21:34:00,
2013-04-22 15:39:00,54.1,17.1,29.94,WNW,299,21.0,22.0,23,0.00,,,0.00,656,WeatherCatV1.15B25,2013-04-22 21:39:00,
2013-04-22 15:44:00,54.1,15.0,29.94,WNW,292,7.0,30.0,21,0.00,,,0.00,806,WeatherCatV1.15B25,2013-04-22 21:44:00,
2013-04-22 15:49:00,54.1,16.1,29.94,WNW,292,21.0,28.0,22,0.00,,,0.00,753,WeatherCatV1.15B25,2013-04-22 21:49:00,
2013-04-22 15:54:00,54.4,16.4,29.94,West,280,18.0,18.0,22,0.00,,,0.00,776,WeatherCatV1.15B25,2013-04-22 21:54:00,
2013-04-22 15:59:00,55.0,16.9,29.94,WNW,292,12.0,24.0,22,0.00,,,0.00,741,WeatherCatV1.15B25,2013-04-22 21:59:00,
2013-04-22 16:04:00,55.1,17.0,29.94,SSW,208,22.0,28.0,22,0.00,,,0.00,774,WeatherCatV1.15B25,2013-04-22 22:04:00,
2013-04-22 16:09:00,54.4,16.4,29.94,WSW,250,13.0,28.0,22,0.00,,,0.00,280,WeatherCatV1.15B25,2013-04-22 22:09:00,
2013-04-22 16:14:00,54.2,16.2,29.94,WSW,250,10.0,17.0,22,0.00,,,0.00,706,WeatherCatV1.15B25,2013-04-22 22:14:00,
2013-04-22 16:19:00,54.2,16.2,29.94,SSW,193,14.0,16.0,22,0.00,,,0.00,554,WeatherCatV1.15B25,2013-04-22 22:19:00,
2013-04-22 16:24:00,54.4,15.3,29.94,West,267,10.0,21.0,21,0.00,,,0.00,646,WeatherCatV1.15B25,2013-04-22 22:24:00,
2013-04-22 16:29:00,54.5,14.3,29.94,NW,315,13.0,22.0,20,0.00,,,0.00,655,WeatherCatV1.15B25,2013-04-22 22:29:00,
2013-04-22 16:34:00,54.4,14.2,29.94,WNW,298,2.0,10.0,20,0.00,,,0.00,653,WeatherCatV1.15B25,2013-04-22 22:34:00,
2013-04-22 16:39:00,54.4,15.3,29.94,WSW,253,7.0,17.0,21,0.00,,,0.00,640,WeatherCatV1.15B25,2013-04-22 22:39:00,
2013-04-22 16:44:00,53.5,15.6,29.94,NNW,339,7.0,30.0,22,0.00,,,0.00,341,WeatherCatV1.15B25,2013-04-22 22:44:00,
2013-04-22 16:49:00,53.2,15.4,29.94,SSW,193,12.0,21.0,22,0.00,,,0.00,591,WeatherCatV1.15B25,2013-04-22 22:49:00,
2013-04-22 16:54:00,53.3,15.4,29.94,SW,223,3.0,11.0,22,0.00,,,0.00,405,WeatherCatV1.15B25,2013-04-22 22:54:00,
2013-04-22 16:59:00,53.2,15.4,29.93,West,268,19.0,25.0,22,0.00,,,0.00,308,WeatherCatV1.15B25,2013-04-22 22:59:00,
2013-04-22 17:04:00,52.9,15.1,29.93,SW,230,11.0,20.0,22,0.00,,,0.00,306,WeatherCatV1.15B25,2013-04-22 23:04:00,
2013-04-22 17:09:00,52.3,15.6,29.93,WSW,241,7.0,12.0,23,0.00,,,0.00,190,WeatherCatV1.15B25,2013-04-22 23:09:00,
2013-04-22 17:14:00,52.2,15.5,29.94,NW,319,9.0,16.0,23,0.00,,,0.00,287,WeatherCatV1.15B25,2013-04-22 23:14:00,
2013-04-22 17:19:00,52.2,14.5,29.94,WSW,256,17.0,18.0,22,0.00,,,0.00,334,WeatherCatV1.15B25,2013-04-22 23:19:00,
2013-04-22 17:24:00,52.5,14.8,29.94,WSW,241,12.0,18.0,22,0.00,,,0.00,245,WeatherCatV1.15B25,2013-04-22 23:24:00,
2013-04-22 17:29:00,52.5,14.8,29.93,SW,229,3.0,13.0,22,0.00,,,0.00,172,WeatherCatV1.15B25,2013-04-22 23:29:00,
2013-04-22 17:34:00,51.9,14.3,29.93,WSW,253,7.0,22.0,22,0.00,,,0.00,150,WeatherCatV1.15B25,2013-04-22 23:34:00,
2013-04-22 17:39:00,51.7,14.1,29.93,SSW,208,8.0,19.0,22,0.00,,,0.00,188,WeatherCatV1.15B25,2013-04-22 23:39:00,
2013-04-22 17:44:00,51.4,13.9,29.93,WSW,239,13.0,20.0,22,0.00,,,0.00,143,WeatherCatV1.15B25,2013-04-22 23:44:00,
2013-04-22 17:49:00,51.3,15.8,29.93,SW,230,6.0,8.0,24,0.00,,,0.00,116,WeatherCatV1.15B25,2013-04-22 23:49:00,
2013-04-22 17:54:00,51.3,14.8,29.93,WSW,240,5.0,16.0,23,0.00,,,0.00,116,WeatherCatV1.15B25,2013-04-22 23:54:00,
2013-04-22 17:59:00,51.1,14.6,29.93,SSW,193,8.0,14.0,23,0.00,,,0.00,128,WeatherCatV1.15B25,2013-04-22 23:59:00,
2013-04-22 18:04:00,51.3,13.8,29.93,WSW,256,13.0,18.0,22,0.00,,,0.00,123,WeatherCatV1.15B25,2013-04-23 00:04:00,
2013-04-22 18:09:00,51.4,14.9,29.93,SSE,155,6.0,12.0,23,0.00,,,0.00,83,WeatherCatV1.15B25,2013-04-23 00:09:00,
2013-04-22 18:14:00,51.3,14.8,29.94,WNW,287,8.0,17.0,23,0.00,,,0.00,83,WeatherCatV1.15B25,2013-04-23 00:14:00,
2013-04-22 18:19:00,51.3,15.8,29.94,NW,320,13.0,22.0,24,0.00,,,0.00,90,WeatherCatV1.15B25,2013-04-23 00:19:00,
2013-04-22 18:24:00,51.1,15.6,29.94,SW,217,16.0,22.0,24,0.00,,,0.00,116,WeatherCatV1.15B25,2013-04-23 00:24:00,
2013-04-22 18:29:00,51.0,15.5,29.94,West,267,5.0,12.0,24,0.00,,,0.00,95,WeatherCatV1.15B25,2013-04-23 00:29:00,
2013-04-22 18:34:00,51.0,15.5,29.94,NW,311,3.0,11.0,24,0.00,,,0.00,83,WeatherCatV1.15B25,2013-04-23 00:34:00,
2013-04-22 18:39:00,50.7,17.1,29.94,WNW,291,14.0,14.0,26,0.00,,,0.00,86,WeatherCatV1.15B25,2013-04-23 00:39:00,
2013-04-22 18:44:00,50.1,17.4,29.95,NW,312,11.0,13.0,27,0.00,,,0.00,55,WeatherCatV1.15B25,2013-04-23 00:44:00,
2013-04-22 18:49:00,49.8,18.0,29.95,West,272,3.0,8.0,28,0.00,,,0.00,83,WeatherCatV1.15B25,2013-04-23 00:49:00,
2013-04-22 18:54:00,49.6,17.9,29.95,WNW,291,8.0,18.0,28,0.00,,,0.00,53,WeatherCatV1.15B25,2013-04-23 00:54:00,
2013-04-22 18:59:00,49.1,17.4,29.95,WSW,250,5.0,13.0,28,0.00,,,0.00,23,WeatherCatV1.15B25,2013-04-23 00:59:00,
2013-04-22 19:04:00,48.6,17.0,29.95,West,264,5.0,7.0,28,0.00,,,0.00,26,WeatherCatV1.15B25,2013-04-23 01:04:00,
2013-04-22 19:09:00,48.3,17.5,29.95,NW,316,1.0,12.0,29,0.00,,,0.00,33,WeatherCatV1.15B25,2013-04-23 01:09:00,
2013-04-22 19:14:00,48.3,18.3,29.95,SW,227,1.0,5.0,30,0.00,,,0.00,39,WeatherCatV1.15B25,2013-04-23 01:14:00,
2013-04-22 19:19:00,48.3,18.3,29.95,South,181,8.0,10.0,30,0.00,,,0.00,28,WeatherCatV1.15B25,2013-04-23 01:19:00,
2013-04-22 19:24:00,48.0,19.6,29.95,SW,219,19.0,29.0,32,0.00,,,0.00,32,WeatherCatV1.15B25,2013-04-23 01:24:00,
2013-04-22 19:29:00,47.0,21.4,29.96,WNW,285,9.0,18.0,36,0.00,,,0.00,16,WeatherCatV1.15B25,2013-04-23 01:29:00,
2013-04-22 19:34:00,46.4,21.6,29.96,NW,325,9.0,14.0,37,0.00,,,0.00,12,WeatherCatV1.15B25,2013-04-23 01:34:00,
2013-04-22 19:39:00,45.7,23.4,29.96,South,184,17.0,19.0,41,0.00,,,0.00,11,WeatherCatV1.15B25,2013-04-23 01:39:00,
2013-04-22 19:44:00,41.5,24.3,29.96,SE,140,6.0,17.0,50,0.00,,,0.00,9,WeatherCatV1.15B25,2013-04-23 01:44:00,
2013-04-22 19:49:00,39.3,23.6,29.96,SE,130,7.0,12.0,53,0.00,,,0.00,5,WeatherCatV1.15B25,2013-04-23 01:49:00,
2013-04-22 19:54:00,37.9,24.0,29.96,ESE,119,2.0,13.0,57,0.00,,,0.00,0,WeatherCatV1.15B25,2013-04-23 01:54:00,
2013-04-22 19:59:00,36.9,24.3,29.98,SE,133,6.0,11.0,60,0.00,,,0.00,0,WeatherCatV1.15B25,2013-04-23 01:59:00,
2013-04-22 20:04:00,36.0,24.3,29.98,NE,35,3.0,6.0,62,0.00,,,0.00,0,WeatherCatV1.15B25,2013-04-23 02:04:00,
2013-04-22 20:09:00,35.8,24.1,29.98,NE,49,6.0,8.0,62,0.00,,,0.00,0,WeatherCatV1.15B25,2013-04-23 02:09:00,
2013-04-22 20:14:00,35.2,24.3,29.99,NNE,20,5.0,5.0,64,0.00,,,0.00,0,WeatherCatV1.15B25,2013-04-23 02:14:00,
2013-04-22 20:19:00,34.6,24.1,29.99,North,6,6.0,9.0,65,0.00,,,0.00,0,WeatherCatV1.15B25,2013-04-23 02:19:00,
2013-04-22 20:24:00,34.1,24.0,29.99,North,10,5.0,8.0,66,0.00,,,0.00,0,WeatherCatV1.15B25,2013-04-23 02:24:00,
2013-04-22 20:29:00,33.7,23.6,30.00,NE,37,6.0,7.0,66,0.00,,,0.00,0,WeatherCatV1.15B25,2013-04-23 02:29:00,
2013-04-22 20:34:00,33.4,23.6,30.00,NE,37,6.0,10.0,67,0.00,,,0.00,0,WeatherCatV1.15B25,2013-04-23 02:34:00,
2013-04-22 20:39:00,33.1,23.7,30.00,NE,34,1.0,2.0,68,0.00,,,0.00,0,WeatherCatV1.15B25,2013-04-23 02:39:00,
2013-04-22 20:44:00,32.9,23.5,30.00,NE,40,7.0,13.0,68,0.00,,,0.00,0,WeatherCatV1.15B25,2013-04-23 02:44:00,
2013-04-22 20:49:00,32.5,23.1,30.00,NE,54,4.0,6.0,68,0.00,,,0.00,0,WeatherCatV1.15B25,2013-04-23 02:49:00,
2013-04-22 20:54:00,31.9,22.9,30.00,NNE,27,2.0,7.0,69,0.00,,,0.00,0,WeatherCatV1.15B25,2013-04-23 02:54:00,
2013-04-22 20:59:00,31.2,22.6,30.01,NNE,27,6.0,10.0,70,0.00,,,0.00,0,WeatherCatV1.15B25,2013-04-23 02:59:00,
2013-04-22 21:04:00,30.7,22.4,30.01,NNE,13,5.0,7.0,71,0.00,,,0.00,0,WeatherCatV1.15B25,2013-04-23 03:04:00,
2013-04-22 21:09:00,30.3,22.4,30.01,North,357,7.0,7.0,72,0.00,,,0.00,0,WeatherCatV1.15B25,2013-04-23 03:09:00,
2013-04-22 21:14:00,30.0,22.1,30.02,NE,52,3.0,8.0,72,0.00,,,0.00,0,WeatherCatV1.15B25,2013-04-23 03:14:00,
2013-04-22 21:19:00,29.8,22.2,30.02,NNE,20,5.0,7.0,73,0.00,,,0.00,0,WeatherCatV1.15B25,2013-04-23 03:19:00,
2013-04-22 21:24:00,29.5,22.3,30.02,North,0,8.0,13.0,74,0.00,,,0.00,0,WeatherCatV1.15B25,2013-04-23 03:24:00,
2013-04-22 21:29:00,29.3,22.4,30.02,North,10,12.0,12.0,75,0.00,,,0.00,0,WeatherCatV1.15B25,2013-04-23 03:29:00,
2013-04-22 21:34:00,28.8,22.2,30.02,North,0,7.0,12.0,76,0.00,,,0.00,0,WeatherCatV1.15B25,2013-04-23 03:34:00,
2013-04-22 21:39:00,28.7,22.1,30.02,NNE,27,10.0,12.0,76,0.00,,,0.00,0,WeatherCatV1.15B25,2013-04-23 03:39:00,
2013-04-22 21:44:00,28.2,21.6,30.02,North,357,7.0,8.0,76,0.00,,,0.00,0,WeatherCatV1.15B25,2013-04-23 03:44:00,
2013-04-22 21:49:00,28.2,21.6,30.02,North,7,8.0,11.0,76,0.00,,,0.00,0,WeatherCatV1.15B25,2013-04-23 03:49:00,
2013-04-22 21:54:00,28.1,21.8,30.02,NNW,347,3.0,5.0,77,0.00,,,0.00,0,WeatherCatV1.15B25,2013-04-23 03:54:00,
2013-04-22 21:59:00,27.9,21.3,30.02,North,7,6.0,7.0,76,0.00,,,0.00,0,WeatherCatV1.15B25,2013-04-23 03:59:00,
2013-04-22 22:01:00,27.9,21.6,30.04,NNE,14,10.0,12.0,77,0.00,,,0.00,0,WeatherCatV1.15B25,2013-04-23 04:01:00,
2013-04-22 22:05:00,27.9,21.6,30.04,North,6,5.0,14.0,77,0.00,,,0.00,0,WeatherCatV1.15B25,2013-04-23 04:05:00,
2013-04-22 22:06:00,27.6,21.4,30.04,NE,37,9.0,10.0,77,0.00,,,0.00,0,WeatherCatV1.15B25,2013-04-23 04:06:00,
2013-04-22 22:10:00,27.6,21.3,30.04,NNE,17,7.0,14.0,77,0.00,,,0.00,0,WeatherCatV1.15B25,2013-04-23 04:10:00,
2013-04-22 22:15:00,27.6,21.3,30.04,NNE,17,7.0,14.0,77,0.00,,,0.00,0,WeatherCatV1.15B25,2013-04-23 04:15:00,
2013-04-22 22:20:00,27.3,21.4,30.04,NNE,22,6.0,14.0,78,0.00,,,0.00,0,WeatherCatV1.15B25,2013-04-23 04:20:00,
2013-04-22 22:25:00,27.3,21.4,30.04,NNE,22,6.0,14.0,78,0.00,,,0.00,0,WeatherCatV1.15B25,2013-04-23 04:25:00,
2013-04-22 22:30:00,27.3,21.4,30.04,NNE,22,6.0,14.0,78,0.00,,,0.00,0,WeatherCatV1.15B25,2013-04-23 04:30:00,
2013-04-22 22:35:00,26.4,20.5,30.05,North,0,6.0,12.0,78,0.00,,,0.00,0,WeatherCatV1.15B25,2013-04-23 04:35:00,
2013-04-22 22:40:00,26.4,20.5,30.05,North,0,6.0,12.0,78,0.00,,,0.00,0,WeatherCatV1.15B25,2013-04-23 04:40:00,
2013-04-22 22:45:00,26.4,20.5,30.05,North,0,6.0,12.0,78,0.00,,,0.00,0,WeatherCatV1.15B25,2013-04-23 04:45:00,
2013-04-22 22:50:00,25.4,20.1,30.05,NE,45,4.0,13.0,80,0.00,,,0.00,0,WeatherCatV1.15B25,2013-04-23 04:50:00,
2013-04-22 22:55:00,25.4,20.1,30.05,NE,45,4.0,13.0,80,0.00,,,0.00,0,WeatherCatV1.15B25,2013-04-23 04:55:00,
2013-04-22 23:00:00,25.4,20.1,30.05,NE,45,4.0,13.0,80,0.00,,,0.00,0,WeatherCatV1.15B25,2013-04-23 05:00:00,
2013-04-22 23:05:00,25.0,20.3,30.06,North,0,2.0,8.0,82,0.00,,,0.00,0,WeatherCatV1.15B25,2013-04-23 05:05:00,
2013-04-22 23:10:00,25.0,20.3,30.06,North,0,2.0,8.0,82,0.00,,,0.00,0,WeatherCatV1.15B25,2013-04-23 05:10:00,
2013-04-22 23:15:00,25.0,20.3,30.06,North,0,2.0,8.0,82,0.00,,,0.00,0,WeatherCatV1.15B25,2013-04-23 05:15:00,
2013-04-22 23:20:00,24.2,19.8,30.06,NE,45,3.0,8.0,83,0.00,,,0.00,0,WeatherCatV1.15B25,2013-04-23 05:20:00,
2013-04-22 23:25:00,24.2,19.8,30.06,NE,45,3.0,8.0,83,0.00,,,0.00,0,WeatherCatV1.15B25,2013-04-23 05:25:00,
2013-04-22 23:30:00,24.2,19.8,30.06,NE,45,3.0,8.0,83,0.00,,,0.00,0,WeatherCatV1.15B25,2013-04-23 05:30:00,
2013-04-22 23:35:00,23.5,19.4,30.05,NE,45,3.0,11.0,84,0.00,,,0.00,0,WeatherCatV1.15B25,2013-04-23 05:35:00,
2013-04-22 23:40:00,23.5,19.4,30.05,NE,45,3.0,11.0,84,0.00,,,0.00,0,WeatherCatV1.15B25,2013-04-23 05:40:00,
2013-04-22 23:45:00,23.5,19.4,30.05,NE,45,3.0,11.0,84,0.00,,,0.00,0,WeatherCatV1.15B25,2013-04-23 05:45:00,
2013-04-22 23:50:00,23.0,18.9,30.06,ENE,68,3.0,12.0,84,0.00,,,0.00,0,WeatherCatV1.15B25,2013-04-23 05:50:00,
2013-04-22 23:55:00,23.0,18.9,30.06,ENE,68,3.0,12.0,84,0.00,,,0.00,0,WeatherCatV1.15B25,2013-04-23 05:55:00,